P/2003 K2 ( Christensen ) 2008

Japanese version
Home page
Total 6,336 html files since Dec. 4, 1995
Updated on August 30, 2008

---------------------------------------------------------------------

* Profile

* Orbital Elements

Perturbed ephemeris below based on unperturbed elements from MPC 49277. 

 Epoch = 2454840.50000 TT   T = 2454832.16714 TT
 Peri. =  345.87219         a =     3.1872255 AU
 Node  =   93.85920 J2000.0 e =     0.8323405
 Incl. =   10.21947         q =     0.5343685 AU

* Finding Charts

* Magnitudes Graph

        m1 = 13.0 + 5 log d + 15.0 log r

---------------------------------------------------------------------

The orbital elements are calculated using the Minor Planet & Comet Ephemeris Service.
The charts are made with StellaNavigator Ver.2.0 for Windows (AstroArts / ASCII).
The magnitudes graphs are made with Comet for Windows.

---------------------------------------------------------------------

Copyright(C) 1995-2008 Seiichi Yoshida (comet@aerith.net). All rights reserved.